SL-16 DEB, 39864

Orbit data source: Space-Track

SL-16 DEB, 39864 is space debris in LEO originally from a launch on Fri, 25 Dec 1992 UTC launched from the Tyuratam Missile And Space Complex (TTMTR). Debris objects in space refer to the collection of defunct objects orbiting the Earth. Examples of debris include non-operational satellites, rocket bodies, and fragments generated from explosions, collisions, or faulty payload assembly.

Loading next visibility...
Identifier
39864, 1992-093LS
Orbit
LEO
Country
Flag of CISCIS
Related business
Manufacturer
Unknown
Mission
Spacecraft
Bus & Motor
Unknown
Mass
Unknown
Launch date (UTC)
1992-12-25 (33 years ago)
Launch vehicle
Unknown
Launch site
Tyuratam Missile And Space Complex (TTMTR)
Object type
Payload
Rocket body
Debris
Shape & HBR
Unknown shape, 0.1 m
Radar Cross Section
Small (<0.1 m²)

Expand to show TLE details & history
Last TLE update: 2 months ago

TLE from 2 months ago
0 SL-16 DEB
1 39864U 92093LS  26075.36989414  .00001350  00000-0  65392-3 0  9994
2 39864  71.1535 332.3747 0108399  13.4272 346.9696 14.17142665605979
Epoch: 2026-03-16T08:52Z
TLE epoch observation values (Epoch: 2026-03-16T08:52:38.853Z)
Latitude
0.00002°
Longitude
25.24947°
Altitude
761.301 km
Speed
7.513 km/s
True Right ascension
22h 09m 29s
True Declination
0° 00' 00"
Sunlit
Object was in daylight at epoch
Visualization orbit readout
Latitude
Unknown
Longitude
Unknown
Altitude
Unknown
Speed
Unknown
Apparent Right ascension
Unknown
Apparent Declination
Unknown
Sunlit
N/A
Visualization observer readout
Local Sidereal Time
17:21:15
Azimuth
Unknown
Elevation
Unknown
Doppler factor
Unknown
Orbital elements
Apogee altitude
911.107 km
Perigee altitude
754.772 km
Semi-major axis
7,211.077 km
Eccentricity
0.01084
Inclination
71.1535°
RAAN
332.3747°
Arg. of periapsis
13.4272°
True anomaly
346.68579°
Mean anomaly
346.9696°
Eccentric anomaly
346.82807°
Mean motion
3.5444 °/min
Orbital period
101.57 mins
BSTAR
0.00065392
Loading maneuver chart data...
Computing Atmospheric mass density...
Loading historical data...
Loading historical data...
Loading historical data...
Loading historical data...
Loading historical data...
Loading historical data...
Loading historical data...

Documentation

Showing up to 5 results
|